START_TIME,STEP,MOV.,P11,t_acc.,P23,t_acc.,P27,t_acc.,A4,t_acc.
1986-01-26 06:00:24.420 ,2,0,1.,4.8,0.,4.8,0.,4.8,0.,4.8
1986-01-26 06:00:29.220 ,2,0,3.,4.8,0.,4.8,0.,4.8,0.,4.8
1986-01-26 06:00:34.020 ,2,0,4.,4.8,0.,4.8,0.,4.8,0.,4.8
1986-01-26 06:00:38.820 ,2,0,6.,4.8,0.,4.8,0.,4.8,0.,4.8
1986-01-26 06:00:43.620 ,2,0,2.,4.8,0.,4.8,0.,4.8,0.,4.8
1986-01-26 06:00:48.420 ,1,0,5.,4.8,0.,4.8,0.,4.8,0.,4.8
1986-01-26 06:00:53.220 ,1,0,9.,4.8,0.,4.8,0.,4.8,0.,4.8
1986-01-26 06:00:58.020 ,1,0,12.,4.8,0.,4.8,0.,4.8,0.,4.8
1986-01-26 06:01:02.820 ,1,0,8.,4.8,0.,4.8,0.,4.8,0.,4.8
1986-01-26 06:01:07.620 ,1,0,8.,4.8,0.,4.8,0.,4.8,0.,4.8
1986-01-26 06:01:12.420 ,1,0,6.,4.8,0.,4.8,0.,4.8,0.,4.8
1986-01-26 06:01:17.220 ,1,0,11.,4.8,0.,4.8,0.,4.8,0.,4.8
1986-01-26 06:01:22.020 ,1,0,7.,4.8,0.,4.8,0.,4.8,0.,4.8
1986-01-26 06:01:26.820 ,1,0,5.,4.8,0.,4.8,0.,4.8,0.,4.8
1986-01-26 06:01:31.620 ,1,0,12.,4.8,0.,4.8,0.,4.8,0.,4.8
1986-01-26 06:01:36.420 ,0,0,7.,4.8,0.,4.8,0.,4.8,0.,4.8
1986-01-26 06:01:41.220 ,0,0,8.,4.8,0.,4.8,0.,4.8,0.,4.8
1986-01-26 06:01:46.020 ,0,0,7.,4.8,0.,4.8,0.,4.8,0.,4.8
1986-01-26 06:01:50.820 ,0,0,5.,4.8,0.,4.8,0.,4.8,0.,4.8
1986-01-26 06:01:55.620 ,0,0,8.,4.8,0.,4.8,0.,4.8,0.,4.8
1986-01-26 06:02:00.420 ,0,0,8.,4.8,0.,4.8,0.,4.8,0.,4.8
1986-01-26 06:02:05.220 ,0,0,10.,4.8,0.,4.8,0.,4.8,0.,4.8
1986-01-26 06:02:10.020 ,0,0,5.,4.8,0.,4.8,0.,4.8,0.,4.8
1986-01-26 06:02:14.820 ,0,0,4.,4.8,0.,4.8,0.,4.8,0.,4.8
1986-01-26 06:02:19.620 ,0,0,6.,4.8,0.,4.8,0.,4.8,0.,4.8
1986-01-26 06:02:24.420 ,0,0,5.,4.8,0.,4.8,0.,4.8,0.,4.8
1986-01-26 06:02:29.220 ,0,0,7.,4.8,0.,4.8,0.,4.8,0.,4.8
1986-01-26 06:02:34.020 ,0,0,11.,4.8,0.,4.8,0.,4.8,0.,4.8
1986-01-26 06:02:38.820 ,0,0,7.,4.8,0.,4.8,0.,4.8,0.,4.8
1986-01-26 06:02:43.620 ,0,0,4.,4.8,0.,4.8,0.,4.8,0.,4.8
1986-01-26 06:02:48.420 ,0,0,5.,4.8,0.,4.8,0.,4.8,0.,4.8
1986-01-26 06:02:53.220 ,0,0,7.,4.8,0.,4.8,0.,4.8,0.,4.8
1986-01-26 06:02:58.020 ,0,0,12.,4.8,0.,4.8,0.,4.8,0.,4.8
1986-01-26 06:03:02.820 ,0,0,6.,4.8,0.,4.8,0.,4.8,0.,4.8
1986-01-26 06:03:07.620 ,0,0,6.,4.8,0.,4.8,0.,4.8,0.,4.8
1986-01-26 06:03:12.420 ,1,0,7.,4.8,0.,4.8,0.,4.8,0.,4.8
1986-01-26 06:03:17.220 ,1,0,13.,4.8,0.,4.8,0.,4.8,0.,4.8
1986-01-26 06:03:22.020 ,1,0,10.,4.8,0.,4.8,0.,4.8,0.,4.8
1986-01-26 06:03:26.820 ,1,0,4.,4.8,0.,4.8,0.,4.8,0.,4.8
1986-01-26 06:03:31.620 ,1,0,10.,4.8,0.,4.8,0.,4.8,0.,4.8
1986-01-26 06:03:36.420 ,1,0,7.,4.8,0.,4.8,0.,4.8,0.,4.8
1986-01-26 06:03:41.220 ,1,0,6.,4.8,0.,4.8,0.,4.8,0.,4.8
1986-01-26 06:03:46.020 ,1,0,5.,4.8,0.,4.8,0.,4.8,0.,4.8
1986-01-26 06:03:50.820 ,1,0,1.,4.8,0.,4.8,0.,4.8,0.,4.8
1986-01-26 06:03:55.620 ,1,0,8.,4.8,0.,4.8,0.,4.8,0.,4.8
1986-01-26 06:04:00.420 ,2,0,10.,4.8,0.,4.8,0.,4.8,0.,4.8
1986-01-26 06:04:05.220 ,2,0,2.,4.8,0.,4.8,0.,4.8,0.,4.8
1986-01-26 06:04:10.020 ,2,0,7.,4.8,0.,4.8,0.,4.8,0.,4.8
1986-01-26 06:04:14.820 ,2,0,8.,4.8,0.,4.8,0.,4.8,0.,4.8
1986-01-26 06:04:19.620 ,2,0,7.,4.8,0.,4.8,0.,4.8,0.,4.8
1986-01-26 06:04:24.420 ,2,0,3.,4.8,0.,4.8,0.,4.8,0.,4.8
1986-01-26 06:04:29.220 ,2,0,7.,4.8,0.,4.8,0.,4.8,0.,4.8
1986-01-26 06:04:34.020 ,2,0,7.,4.8,0.,4.8,0.,4.8,0.,4.8
1986-01-26 06:04:38.820 ,2,0,7.,4.8,0.,4.8,0.,4.8,0.,4.8
1986-01-26 06:04:43.620 ,2,0,7.,4.8,0.,4.8,0.,4.8,0.,4.8
1986-01-26 06:04:48.420 ,3,0,9.,4.8,0.,4.8,0.,4.8,0.,4.8
1986-01-26 06:04:53.220 ,3,0,16.,4.8,0.,4.8,0.,4.8,0.,4.8
1986-01-26 06:04:58.020 ,3,0,10.,4.8,0.,4.8,0.,4.8,0.,4.8
1986-01-26 06:05:02.820 ,3,0,10.,4.8,0.,4.8,0.,4.8,0.,4.8
1986-01-26 06:05:07.620 ,3,0,3.,4.8,0.,4.8,0.,4.8,0.,4.8
1986-01-26 06:05:12.420 ,3,0,5.,4.8,0.,4.8,0.,4.8,0.,4.8
1986-01-26 06:05:17.220 ,3,0,6.,4.8,0.,4.8,0.,4.8,0.,4.8
1986-01-26 06:05:22.020 ,3,0,9.,4.8,0.,4.8,0.,4.8,0.,4.8
1986-01-26 06:05:26.820 ,3,0,11.,4.8,0.,4.8,0.,4.8,0.,4.8
1986-01-26 06:05:31.620 ,3,0,6.,4.8,0.,4.8,0.,4.8,0.,4.8
1986-01-26 06:05:36.420 ,4,0,8.,4.8,0.,4.8,0.,4.8,0.,4.8
1986-01-26 06:05:41.220 ,4,0,7.,4.8,0.,4.8,0.,4.8,0.,4.8
1986-01-26 06:05:46.020 ,4,0,9.,4.8,0.,4.8,0.,4.8,0.,4.8
1986-01-26 06:05:50.820 ,4,0,4.,4.8,0.,4.8,0.,4.8,0.,4.8
1986-01-26 06:05:55.620 ,4,0,13.,4.8,0.,4.8,0.,4.8,0.,4.8
1986-01-26 06:06:00.420 ,4,0,11.,4.8,0.,4.8,0.,4.8,0.,4.8
1986-01-26 06:06:05.220 ,4,0,9.,4.8,0.,4.8,0.,4.8,0.,4.8
1986-01-26 06:06:10.020 ,4,0,13.,4.8,0.,4.8,0.,4.8,0.,4.8
1986-01-26 06:06:14.820 ,4,0,5.,4.8,0.,4.8,0.,4.8,0.,4.8
1986-01-26 06:06:19.620 ,4,0,4.,4.8,0.,4.8,0.,4.8,0.,4.8
1986-01-26 06:06:24.420 ,5,0,6.,4.8,0.,4.8,0.,4.8,0.,4.8
1986-01-26 06:06:29.220 ,5,0,12.,4.8,0.,4.8,0.,4.8,0.,4.8
1986-01-26 06:06:34.020 ,5,0,7.,4.8,0.,4.8,0.,4.8,0.,4.8
1986-01-26 06:06:38.820 ,5,0,8.,4.8,0.,4.8,0.,4.8,0.,4.8
1986-01-26 06:06:43.620 ,5,0,5.,4.8,0.,4.8,0.,4.8,0.,4.8
1986-01-26 06:06:48.420 ,5,0,7.,4.8,0.,4.8,0.,4.8,0.,4.8
1986-01-26 06:06:53.220 ,5,0,7.,4.8,0.,4.8,0.,4.8,0.,4.8
1986-01-26 06:06:58.020 ,5,0,10.,4.8,0.,4.8,0.,4.8,0.,4.8
1986-01-26 06:07:02.820 ,5,0,6.,4.8,0.,4.8,0.,4.8,0.,4.8
1986-01-26 06:07:07.620 ,5,0,5.,4.8,0.,4.8,0.,4.8,0.,4.8
1986-01-26 06:07:12.420 ,6,0,6.,4.8,0.,4.8,0.,4.8,0.,4.8
1986-01-26 06:07:17.220 ,6,0,8.,4.8,0.,4.8,0.,4.8,0.,4.8
1986-01-26 06:07:22.020 ,6,0,10.,4.8,0.,4.8,0.,4.8,0.,4.8
1986-01-26 06:07:26.820 ,6,0,3.,4.8,0.,4.8,0.,4.8,0.,4.8
1986-01-26 06:07:31.620 ,6,0,7.,4.8,0.,4.8,0.,4.8,0.,4.8
1986-01-26 06:07:36.420 ,6,0,12.,4.8,0.,4.8,0.,4.8,0.,4.8
1986-01-26 06:07:41.220 ,6,0,8.,4.8,0.,4.8,0.,4.8,0.,4.8
1986-01-26 06:07:46.020 ,6,0,5.,4.8,0.,4.8,0.,4.8,0.,4.8
1986-01-26 06:07:50.820 ,6,0,10.,4.8,0.,4.8,0.,4.8,0.,4.8
1986-01-26 06:07:55.620 ,6,0,8.,4.8,0.,4.8,0.,4.8,0.,4.8
1986-01-26 06:08:00.420 ,7,0,6.,4.8,0.,4.8,0.,4.8,0.,4.8
1986-01-26 06:08:05.220 ,7,0,4.,4.8,0.,4.8,0.,4.8,0.,4.8
1986-01-26 06:08:10.020 ,7,0,5.,4.8,0.,4.8,0.,4.8,0.,4.8
1986-01-26 06:08:14.820 ,7,0,7.,4.8,0.,4.8,0.,4.8,0.,4.8
1986-01-26 06:08:19.620 ,7,0,2.,4.8,0.,4.8,0.,4.8,0.,4.8
1986-01-26 06:08:24.420 ,7,0,4.,4.8,0.,4.8,0.,4.8,0.,4.8
1986-01-26 06:08:29.220 ,7,0,10.,4.8,0.,4.8,0.,4.8,0.,4.8
1986-01-26 06:08:34.020 ,7,0,6.,4.8,0.,4.8,0.,4.8,0.,4.8
1986-01-26 06:08:38.820 ,7,0,5.,4.8,0.,4.8,0.,4.8,0.,4.8
1986-01-26 06:08:43.620 ,7,0,6.,4.8,0.,4.8,0.,4.8,0.,4.8
1986-01-26 06:08:48.420 ,7,0,12.,4.8,0.,4.8,0.,4.8,0.,4.8
1986-01-26 06:08:53.220 ,7,0,5.,4.8,0.,4.8,0.,4.8,0.,4.8
1986-01-26 06:08:58.020 ,7,0,9.,4.8,0.,4.8,0.,4.8,0.,4.8
1986-01-26 06:09:02.820 ,7,0,8.,4.8,0.,4.8,0.,4.8,0.,4.8
1986-01-26 06:09:07.620 ,7,0,8.,4.8,0.,4.8,0.,4.8,0.,4.8
1986-01-26 06:09:12.420 ,7,0,7.,4.8,0.,4.8,0.,4.8,0.,4.8
1986-01-26 06:09:17.220 ,7,0,11.,4.8,0.,4.8,0.,4.8,0.,4.8
1986-01-26 06:09:22.020 ,7,0,11.,4.8,0.,4.8,0.,4.8,0.,4.8
1986-01-26 06:09:26.820 ,7,0,12.,4.8,0.,4.8,0.,4.8,0.,4.8
1986-01-26 06:09:31.620 ,7,0,6.,4.8,0.,4.8,0.,4.8,0.,4.8
1986-01-26 06:09:36.420 ,6,0,6.,4.8,0.,4.8,0.,4.8,0.,4.8
1986-01-26 06:09:41.220 ,6,0,4.,4.8,0.,4.8,0.,4.8,0.,4.8
1986-01-26 06:09:46.020 ,6,0,2.,4.8,0.,4.8,0.,4.8,0.,4.8
1986-01-26 06:09:50.820 ,6,0,8.,4.8,0.,4.8,0.,4.8,0.,4.8
1986-01-26 06:09:55.620 ,6,0,5.,4.8,0.,4.8,0.,4.8,0.,4.8
1986-01-26 06:10:00.420 ,6,0,10.,4.8,0.,4.8,0.,4.8,0.,4.8
1986-01-26 06:10:05.220 ,6,0,7.,4.8,0.,4.8,0.,4.8,0.,4.8
1986-01-26 06:10:10.020 ,6,0,6.,4.8,0.,4.8,0.,4.8,0.,4.8
1986-01-26 06:10:14.820 ,6,0,10.,4.8,0.,4.8,0.,4.8,0.,4.8
1986-01-26 06:10:19.620 ,6,0,10.,4.8,0.,4.8,0.,4.8,0.,4.8
1986-01-26 06:10:24.420 ,5,0,2.,4.8,0.,4.8,0.,4.8,0.,4.8
1986-01-26 06:10:29.220 ,5,0,9.,4.8,0.,4.8,0.,4.8,0.,4.8
1986-01-26 06:10:34.020 ,5,0,8.,4.8,0.,4.8,0.,4.8,0.,4.8
1986-01-26 06:10:38.820 ,5,0,7.,4.8,0.,4.8,0.,4.8,0.,4.8
1986-01-26 06:10:43.620 ,5,0,6.,4.8,0.,4.8,0.,4.8,0.,4.8
1986-01-26 06:10:48.420 ,5,0,5.,4.8,0.,4.8,0.,4.8,0.,4.8
1986-01-26 06:10:53.220 ,5,0,7.,4.8,0.,4.8,0.,4.8,0.,4.8
1986-01-26 06:10:58.020 ,5,0,6.,4.8,0.,4.8,0.,4.8,0.,4.8
1986-01-26 06:11:02.820 ,5,0,5.,4.8,0.,4.8,0.,4.8,0.,4.8
1986-01-26 06:11:07.620 ,5,0,6.,4.8,0.,4.8,0.,4.8,0.,4.8
1986-01-26 06:11:12.420 ,4,0,5.,4.8,0.,4.8,0.,4.8,0.,4.8
1986-01-26 06:11:17.220 ,4,0,11.,4.8,0.,4.8,0.,4.8,0.,4.8
1986-01-26 06:11:22.020 ,4,0,10.,4.8,0.,4.8,0.,4.8,0.,4.8
1986-01-26 06:11:26.820 ,4,0,7.,4.8,0.,4.8,0.,4.8,0.,4.8
1986-01-26 06:11:31.620 ,4,0,11.,4.8,0.,4.8,0.,4.8,0.,4.8
1986-01-26 06:11:36.420 ,4,0,11.,4.8,0.,4.8,0.,4.8,0.,4.8
1986-01-26 06:11:41.220 ,4,0,8.,4.8,0.,4.8,0.,4.8,0.,4.8
1986-01-26 06:11:46.020 ,4,0,10.,4.8,0.,4.8,0.,4.8,0.,4.8
1986-01-26 06:11:50.820 ,4,0,3.,4.8,0.,4.8,0.,4.8,0.,4.8
1986-01-26 06:11:55.620 ,4,0,7.,4.8,0.,4.8,0.,4.8,0.,4.8
1986-01-26 06:12:00.420 ,3,0,8.,4.8,0.,4.8,0.,4.8,0.,4.8
1986-01-26 06:12:05.220 ,3,0,8.,4.8,0.,4.8,0.,4.8,0.,4.8
1986-01-26 06:12:10.020 ,3,0,7.,4.8,0.,4.8,0.,4.8,0.,4.8
1986-01-26 06:12:14.820 ,3,0,11.,4.8,0.,4.8,0.,4.8,0.,4.8
1986-01-26 06:12:19.620 ,3,0,8.,4.8,0.,4.8,0.,4.8,0.,4.8
1986-01-26 06:12:24.420 ,3,0,8.,4.8,0.,4.8,0.,4.8,0.,4.8
1986-01-26 06:12:29.220 ,3,0,6.,4.8,0.,4.8,0.,4.8,0.,4.8
1986-01-26 06:12:34.020 ,3,0,5.,4.8,0.,4.8,0.,4.8,0.,4.8
1986-01-26 06:12:38.820 ,3,0,3.,4.8,0.,4.8,0.,4.8,0.,4.8
1986-01-26 06:12:43.620 ,3,0,10.,4.8,0.,4.8,0.,4.8,0.,4.8
1986-01-26 06:12:48.420 ,2,0,5.,4.8,0.,4.8,0.,4.8,0.,4.8
1986-01-26 06:12:53.220 ,2,0,12.,4.8,0.,4.8,0.,4.8,0.,4.8
1986-01-26 06:12:58.020 ,2,0,10.,4.8,0.,4.8,0.,4.8,0.,4.8
1986-01-26 06:13:02.820 ,2,0,10.,4.8,0.,4.8,0.,4.8,0.,4.8
1986-01-26 06:13:07.620 ,2,0,9.,4.8,0.,4.8,0.,4.8,0.,4.8
1986-01-26 06:13:12.420 ,2,0,6.,4.8,0.,4.8,0.,4.8,0.,4.8
1986-01-26 06:13:17.220 ,2,0,10.,4.8,0.,4.8,0.,4.8,0.,4.8
1986-01-26 06:13:22.020 ,2,0,5.,4.8,0.,4.8,0.,4.8,0.,4.8
1986-01-26 06:13:26.820 ,2,0,10.,4.8,0.,4.8,0.,4.8,0.,4.8
1986-01-26 06:13:31.620 ,2,0,5.,4.8,0.,4.8,0.,4.8,0.,4.8
1986-01-26 06:13:36.420 ,1,0,3.,4.8,0.,4.8,0.,4.8,0.,4.8
1986-01-26 06:13:41.220 ,1,0,8.,4.8,0.,4.8,0.,4.8,0.,4.8
1986-01-26 06:13:46.020 ,1,0,6.,4.8,0.,4.8,0.,4.8,0.,4.8
1986-01-26 06:13:50.820 ,1,0,8.,4.8,0.,4.8,0.,4.8,0.,4.8
1986-01-26 06:13:55.620 ,1,0,5.,4.8,0.,4.8,0.,4.8,0.,4.8
1986-01-26 06:14:00.420 ,1,0,10.,4.8,0.,4.8,0.,4.8,0.,4.8
1986-01-26 06:14:05.220 ,1,0,4.,4.8,0.,4.8,0.,4.8,0.,4.8
1986-01-26 06:14:10.020 ,1,0,9.,4.8,0.,4.8,0.,4.8,0.,4.8
1986-01-26 06:14:14.820 ,1,0,13.,4.8,0.,4.8,0.,4.8,0.,4.8
1986-01-26 06:14:19.620 ,1,0,3.,4.8,0.,4.8,0.,4.8,0.,4.8
1986-01-26 06:14:24.420 ,0,0,4.,4.8,0.,4.8,0.,4.8,0.,4.8
1986-01-26 06:14:29.220 ,0,0,9.,4.8,0.,4.8,0.,4.8,0.,4.8
1986-01-26 06:14:34.020 ,0,0,11.,4.8,0.,4.8,0.,4.8,0.,4.8
1986-01-26 06:14:38.820 ,0,0,8.,4.8,0.,4.8,0.,4.8,0.,4.8
1986-01-26 06:14:43.620 ,0,0,4.,4.8,0.,4.8,0.,4.8,0.,4.8
1986-01-26 06:14:48.420 ,0,0,6.,4.8,0.,4.8,0.,4.8,0.,4.8
1986-01-26 06:14:53.220 ,0,0,5.,4.8,0.,4.8,0.,4.8,0.,4.8
1986-01-26 06:14:58.020 ,0,0,6.,4.8,0.,4.8,0.,4.8,0.,4.8
1986-01-26 06:15:02.820 ,0,0,5.,4.8,0.,4.8,0.,4.8,0.,4.8
1986-01-26 06:15:07.620 ,0,0,5.,4.8,0.,4.8,0.,4.8,0.,4.8
1986-01-26 06:15:12.420 ,0,0,7.,4.8,0.,4.8,0.,4.8,0.,4.8
1986-01-26 06:15:17.220 ,0,0,8.,4.8,0.,4.8,0.,4.8,0.,4.8
1986-01-26 06:15:22.020 ,0,0,4.,4.8,0.,4.8,0.,4.8,0.,4.8
1986-01-26 06:15:26.820 ,0,0,7.,4.8,0.,4.8,0.,4.8,0.,4.8
1986-01-26 06:15:31.620 ,0,0,4.,4.8,0.,4.8,0.,4.8,0.,4.8
1986-01-26 06:15:36.420 ,0,0,5.,4.8,0.,4.8,0.,4.8,0.,4.8
1986-01-26 06:15:41.220 ,0,0,2.,4.8,0.,4.8,0.,4.8,0.,4.8
1986-01-26 06:15:46.020 ,0,0,4.,4.8,0.,4.8,0.,4.8,0.,4.8
1986-01-26 06:15:50.820 ,0,0,3.,4.8,0.,4.8,0.,4.8,0.,4.8
1986-01-26 06:15:55.620 ,0,0,3.,4.8,0.,4.8,0.,4.8,0.,4.8
1986-01-26 06:16:00.420 ,1,0,5.,4.8,0.,4.8,0.,4.8,0.,4.8
1986-01-26 06:16:05.220 ,1,0,8.,4.8,0.,4.8,0.,4.8,0.,4.8
1986-01-26 06:16:10.020 ,1,0,6.,4.8,0.,4.8,0.,4.8,0.,4.8
1986-01-26 06:16:14.820 ,1,0,10.,4.8,0.,4.8,0.,4.8,0.,4.8
1986-01-26 06:16:19.620 ,1,0,9.,4.8,0.,4.8,0.,4.8,0.,4.8
1986-01-26 06:16:24.420 ,1,0,5.,4.8,0.,4.8,0.,4.8,0.,4.8
1986-01-26 06:16:29.220 ,1,0,3.,4.8,0.,4.8,0.,4.8,0.,4.8
1986-01-26 06:16:34.020 ,1,0,3.,4.8,0.,4.8,0.,4.8,0.,4.8
1986-01-26 06:16:38.820 ,1,0,1.,4.8,0.,4.8,0.,4.8,0.,4.8
1986-01-26 06:16:43.620 ,1,0,4.,4.8,0.,4.8,0.,4.8,0.,4.8
1986-01-26 06:16:48.420 ,2,0,10.,4.8,0.,4.8,0.,4.8,0.,4.8
1986-01-26 06:16:53.220 ,2,0,7.,4.8,0.,4.8,0.,4.8,0.,4.8
1986-01-26 06:16:58.020 ,2,0,4.,4.8,0.,4.8,0.,4.8,0.,4.8
1986-01-26 06:17:02.820 ,2,0,9.,4.8,0.,4.8,0.,4.8,0.,4.8
1986-01-26 06:17:07.620 ,2,0,7.,4.8,0.,4.8,0.,4.8,0.,4.8
1986-01-26 06:17:12.420 ,2,0,6.,4.8,0.,4.8,0.,4.8,0.,4.8
1986-01-26 06:17:17.220 ,2,0,7.,4.8,0.,4.8,0.,4.8,0.,4.8
1986-01-26 06:17:22.020 ,2,0,8.,4.8,0.,4.8,0.,4.8,0.,4.8
1986-01-26 06:17:26.820 ,2,0,4.,4.8,0.,4.8,0.,4.8,0.,4.8
1986-01-26 06:17:31.620 ,2,0,6.,4.8,0.,4.8,0.,4.8,0.,4.8
1986-01-26 06:17:36.420 ,3,0,7.,4.8,0.,4.8,0.,4.8,0.,4.8
1986-01-26 06:17:41.220 ,3,0,6.,4.8,0.,4.8,0.,4.8,0.,4.8
1986-01-26 06:17:46.020 ,3,0,11.,4.8,0.,4.8,0.,4.8,0.,4.8
1986-01-26 06:17:50.820 ,3,0,11.,4.8,0.,4.8,0.,4.8,0.,4.8
1986-01-26 06:17:55.620 ,3,0,12.,4.8,0.,4.8,0.,4.8,0.,4.8
1986-01-26 06:18:00.420 ,3,0,8.,4.8,0.,4.8,0.,4.8,0.,4.8
1986-01-26 06:18:05.220 ,3,0,6.,4.8,0.,4.8,0.,4.8,0.,4.8
1986-01-26 06:18:10.020 ,3,0,8.,4.8,0.,4.8,0.,4.8,0.,4.8
1986-01-26 06:18:14.820 ,3,0,5.,4.8,0.,4.8,0.,4.8,0.,4.8
1986-01-26 06:18:19.620 ,3,0,9.,4.8,0.,4.8,0.,4.8,0.,4.8
1986-01-26 06:18:24.420 ,4,0,6.,4.8,0.,4.8,0.,4.8,0.,4.8
1986-01-26 06:18:29.220 ,4,0,14.,4.8,0.,4.8,0.,4.8,0.,4.8
1986-01-26 06:18:34.020 ,4,0,8.,4.8,0.,4.8,0.,4.8,0.,4.8
1986-01-26 06:18:38.820 ,4,0,3.,4.8,0.,4.8,0.,4.8,0.,4.8
1986-01-26 06:18:43.620 ,4,0,8.,4.8,0.,4.8,0.,4.8,0.,4.8
1986-01-26 06:18:48.420 ,4,0,4.,4.8,0.,4.8,0.,4.8,0.,4.8
1986-01-26 06:18:53.220 ,4,0,9.,4.8,0.,4.8,0.,4.8,0.,4.8
1986-01-26 06:18:58.020 ,4,0,7.,4.8,0.,4.8,0.,4.8,0.,4.8
1986-01-26 06:19:02.820 ,4,0,6.,4.8,0.,4.8,0.,4.8,0.,4.8
1986-01-26 06:19:07.620 ,4,0,11.,4.8,0.,4.8,0.,4.8,0.,4.8
1986-01-26 06:19:12.420 ,5,0,6.,4.8,0.,4.8,0.,4.8,0.,4.8
1986-01-26 06:19:17.220 ,5,0,10.,4.8,0.,4.8,0.,4.8,0.,4.8
1986-01-26 06:19:22.020 ,5,0,7.,4.8,0.,4.8,0.,4.8,0.,4.8
1986-01-26 06:19:26.820 ,5,0,5.,4.8,0.,4.8,0.,4.8,0.,4.8
1986-01-26 06:19:31.620 ,5,0,9.,4.8,0.,4.8,0.,4.8,0.,4.8
1986-01-26 06:19:36.420 ,5,0,11.,4.8,0.,4.8,0.,4.8,0.,4.8
1986-01-26 06:19:41.220 ,5,0,9.,4.8,0.,4.8,0.,4.8,0.,4.8
1986-01-26 06:19:46.020 ,5,0,6.,4.8,0.,4.8,0.,4.8,0.,4.8
1986-01-26 06:19:50.820 ,5,0,8.,4.8,0.,4.8,0.,4.8,0.,4.8
1986-01-26 06:19:55.620 ,5,0,4.,4.8,0.,4.8,0.,4.8,0.,4.8
1986-01-26 06:20:00.420 ,6,0,3.,4.8,0.,4.8,0.,4.8,0.,4.8
1986-01-26 06:20:05.220 ,6,0,4.,4.8,0.,4.8,0.,4.8,0.,4.8
1986-01-26 06:20:10.020 ,6,0,8.,4.8,0.,4.8,0.,4.8,0.,4.8
1986-01-26 06:20:14.820 ,6,0,8.,4.8,0.,4.8,0.,4.8,0.,4.8
1986-01-26 06:20:19.620 ,6,0,7.,4.8,0.,4.8,0.,4.8,0.,4.8
1986-01-26 06:20:24.420 ,6,0,9.,4.8,0.,4.8,0.,4.8,0.,4.8
1986-01-26 06:20:29.220 ,6,0,6.,4.8,0.,4.8,0.,4.8,0.,4.8
1986-01-26 06:20:34.020 ,6,0,6.,4.8,0.,4.8,0.,4.8,0.,4.8
1986-01-26 06:20:38.820 ,6,0,8.,4.8,0.,4.8,0.,4.8,0.,4.8
1986-01-26 06:20:43.620 ,6,0,9.,4.8,0.,4.8,0.,4.8,0.,4.8
1986-01-26 06:20:48.420 ,7,0,7.,4.8,0.,4.8,0.,4.8,0.,4.8
1986-01-26 06:20:53.220 ,7,0,6.,4.8,0.,4.8,0.,4.8,0.,4.8
1986-01-26 06:20:58.020 ,7,0,10.,4.8,0.,4.8,0.,4.8,0.,4.8
1986-01-26 06:21:02.820 ,7,0,9.,4.8,0.,4.8,0.,4.8,0.,4.8
1986-01-26 06:21:07.620 ,7,0,7.,4.8,0.,4.8,0.,4.8,0.,4.8
1986-01-26 06:21:12.420 ,7,0,5.,4.8,0.,4.8,0.,4.8,0.,4.8
1986-01-26 06:21:17.220 ,7,0,4.,4.8,0.,4.8,0.,4.8,0.,4.8
1986-01-26 06:21:22.020 ,7,0,10.,4.8,0.,4.8,0.,4.8,0.,4.8
1986-01-26 06:21:26.820 ,7,0,12.,4.8,0.,4.8,0.,4.8,0.,4.8
1986-01-26 06:21:31.620 ,7,0,13.,4.8,0.,4.8,0.,4.8,0.,4.8
1986-01-26 06:21:36.420 ,7,0,6.,4.8,0.,4.8,0.,4.8,0.,4.8
1986-01-26 06:21:41.220 ,7,0,6.,4.8,0.,4.8,0.,4.8,0.,4.8
1986-01-26 06:21:46.020 ,7,0,7.,4.8,0.,4.8,0.,4.8,0.,4.8
1986-01-26 06:21:50.820 ,7,0,11.,4.8,0.,4.8,0.,4.8,0.,4.8
1986-01-26 06:21:55.620 ,7,0,11.,4.8,0.,4.8,0.,4.8,0.,4.8
1986-01-26 06:22:00.420 ,7,0,5.,4.8,0.,4.8,0.,4.8,0.,4.8
1986-01-26 06:22:05.220 ,7,0,5.,4.8,0.,4.8,0.,4.8,0.,4.8
1986-01-26 06:22:10.020 ,7,0,3.,4.8,0.,4.8,0.,4.8,0.,4.8
1986-01-26 06:22:14.820 ,7,0,6.,4.8,0.,4.8,0.,4.8,0.,4.8
1986-01-26 06:22:19.620 ,7,0,6.,4.8,0.,4.8,0.,4.8,0.,4.8
1986-01-26 06:22:24.420 ,6,0,10.,4.8,0.,4.8,0.,4.8,0.,4.8
1986-01-26 06:22:29.220 ,6,0,4.,4.8,0.,4.8,0.,4.8,0.,4.8
1986-01-26 06:22:34.020 ,6,0,9.,4.8,0.,4.8,0.,4.8,0.,4.8
1986-01-26 06:22:38.820 ,6,0,9.,4.8,0.,4.8,0.,4.8,0.,4.8
1986-01-26 06:22:43.620 ,6,0,9.,4.8,0.,4.8,0.,4.8,0.,4.8
1986-01-26 06:22:48.420 ,6,0,7.,4.8,0.,4.8,0.,4.8,0.,4.8
1986-01-26 06:22:53.220 ,6,0,6.,4.8,0.,4.8,0.,4.8,0.,4.8
1986-01-26 06:22:58.020 ,6,0,6.,4.8,0.,4.8,0.,4.8,0.,4.8
1986-01-26 06:23:02.820 ,6,0,7.,4.8,0.,4.8,0.,4.8,0.,4.8
1986-01-26 06:23:07.620 ,6,0,2.,4.8,0.,4.8,0.,4.8,0.,4.8
1986-01-26 06:23:12.420 ,5,0,7.,4.8,0.,4.8,0.,4.8,0.,4.8
1986-01-26 06:23:17.220 ,5,0,7.,4.8,0.,4.8,0.,4.8,0.,4.8
1986-01-26 06:23:22.020 ,5,0,8.,4.8,0.,4.8,0.,4.8,0.,4.8
1986-01-26 06:23:26.820 ,5,0,6.,4.8,0.,4.8,0.,4.8,0.,4.8
1986-01-26 06:23:31.620 ,5,0,8.,4.8,0.,4.8,0.,4.8,0.,4.8
1986-01-26 06:23:36.420 ,5,0,11.,4.8,0.,4.8,0.,4.8,0.,4.8
1986-01-26 06:23:41.220 ,5,0,9.,4.8,0.,4.8,0.,4.8,0.,4.8
1986-01-26 06:23:46.020 ,5,0,7.,4.8,0.,4.8,0.,4.8,0.,4.8
1986-01-26 06:23:50.820 ,5,0,4.,4.8,0.,4.8,0.,4.8,0.,4.8
1986-01-26 06:23:55.620 ,5,0,5.,4.8,0.,4.8,0.,4.8,0.,4.8
1986-01-26 06:24:00.420 ,4,0,2.,4.8,0.,4.8,0.,4.8,0.,4.8
1986-01-26 06:24:05.220 ,4,0,12.,4.8,0.,4.8,0.,4.8,0.,4.8
1986-01-26 06:24:10.020 ,4,0,4.,4.8,0.,4.8,0.,4.8,0.,4.8
1986-01-26 06:24:14.820 ,4,0,7.,4.8,0.,4.8,0.,4.8,0.,4.8
1986-01-26 06:24:19.620 ,4,0,7.,4.8,0.,4.8,0.,4.8,0.,4.8
1986-01-26 06:24:24.420 ,4,0,0.,4.8,0.,4.8,0.,4.8,0.,4.8
1986-01-26 06:24:29.220 ,4,0,5.,4.8,0.,4.8,0.,4.8,0.,4.8
1986-01-26 06:24:34.020 ,4,0,7.,4.8,0.,4.8,0.,4.8,0.,4.8
1986-01-26 06:24:38.820 ,4,0,11.,4.8,0.,4.8,0.,4.8,0.,4.8
1986-01-26 06:24:43.620 ,4,0,9.,4.8,0.,4.8,0.,4.8,0.,4.8
1986-01-26 06:24:48.420 ,3,0,6.,4.8,0.,4.8,0.,4.8,0.,4.8
1986-01-26 06:24:53.220 ,3,0,7.,4.8,0.,4.8,0.,4.8,0.,4.8
1986-01-26 06:24:58.020 ,3,0,4.,4.8,0.,4.8,0.,4.8,0.,4.8
1986-01-26 06:25:02.820 ,3,0,5.,4.8,0.,4.8,0.,4.8,0.,4.8
1986-01-26 06:25:07.620 ,3,0,10.,4.8,0.,4.8,0.,4.8,0.,4.8
1986-01-26 06:25:12.420 ,3,0,5.,4.8,0.,4.8,0.,4.8,0.,4.8
1986-01-26 06:25:17.220 ,3,0,5.,4.8,0.,4.8,0.,4.8,0.,4.8
1986-01-26 06:25:22.020 ,3,0,8.,4.8,0.,4.8,0.,4.8,0.,4.8
1986-01-26 06:25:26.820 ,3,0,5.,4.8,0.,4.8,0.,4.8,0.,4.8
1986-01-26 06:25:31.620 ,3,0,10.,4.8,0.,4.8,0.,4.8,0.,4.8
1986-01-26 06:25:36.420 ,2,0,5.,4.8,0.,4.8,0.,4.8,0.,4.8
1986-01-26 06:25:41.220 ,2,0,8.,4.8,0.,4.8,0.,4.8,0.,4.8
1986-01-26 06:25:46.020 ,2,0,8.,4.8,0.,4.8,0.,4.8,0.,4.8
1986-01-26 06:25:50.820 ,2,0,4.,4.8,0.,4.8,0.,4.8,0.,4.8
1986-01-26 06:25:55.620 ,2,0,9.,4.8,0.,4.8,0.,4.8,0.,4.8
1986-01-26 06:26:00.420 ,2,0,11.,4.8,0.,4.8,0.,4.8,0.,4.8
1986-01-26 06:26:05.220 ,2,0,7.,4.8,0.,4.8,0.,4.8,0.,4.8
1986-01-26 06:26:10.020 ,2,0,4.,4.8,0.,4.8,0.,4.8,0.,4.8
1986-01-26 06:26:14.820 ,2,0,10.,4.8,0.,4.8,0.,4.8,0.,4.8
1986-01-26 06:26:19.620 ,2,0,7.,4.8,0.,4.8,0.,4.8,0.,4.8
1986-01-26 06:26:24.420 ,1,0,10.,4.8,0.,4.8,0.,4.8,0.,4.8
1986-01-26 06:26:29.220 ,1,0,5.,4.8,0.,4.8,0.,4.8,0.,4.8
1986-01-26 06:26:34.020 ,1,0,6.,4.8,0.,4.8,0.,4.8,0.,4.8
1986-01-26 06:26:38.820 ,1,0,11.,4.8,0.,4.8,0.,4.8,0.,4.8
1986-01-26 06:26:43.620 ,1,0,8.,4.8,0.,4.8,0.,4.8,0.,4.8
1986-01-26 06:26:48.420 ,1,0,5.,4.8,0.,4.8,0.,4.8,0.,4.8
1986-01-26 06:26:53.220 ,1,0,9.,4.8,0.,4.8,0.,4.8,0.,4.8
1986-01-26 06:26:58.020 ,1,0,5.,4.8,0.,4.8,0.,4.8,0.,4.8
1986-01-26 06:27:02.820 ,1,0,6.,4.8,0.,4.8,0.,4.8,0.,4.8
1986-01-26 06:27:07.620 ,1,0,8.,4.8,0.,4.8,0.,4.8,0.,4.8
1986-01-26 06:27:12.420 ,0,0,6.,4.8,0.,4.8,0.,4.8,0.,4.8
1986-01-26 06:27:17.220 ,0,0,7.,4.8,0.,4.8,0.,4.8,0.,4.8
1986-01-26 06:27:22.020 ,0,0,9.,4.8,0.,4.8,0.,4.8,0.,4.8
1986-01-26 06:27:26.820 ,0,0,11.,4.8,0.,4.8,0.,4.8,0.,4.8
1986-01-26 06:27:31.620 ,0,0,3.,4.8,0.,4.8,0.,4.8,0.,4.8
1986-01-26 06:27:36.420 ,0,0,10.,4.8,0.,4.8,0.,4.8,0.,4.8
1986-01-26 06:27:41.220 ,0,0,8.,4.8,0.,4.8,0.,4.8,0.,4.8
1986-01-26 06:27:46.020 ,0,0,7.,4.8,0.,4.8,0.,4.8,0.,4.8
1986-01-26 06:27:50.820 ,0,0,5.,4.8,0.,4.8,0.,4.8,0.,4.8
1986-01-26 06:27:55.620 ,0,0,3.,4.8,0.,4.8,0.,4.8,0.,4.8
1986-01-26 06:28:00.420 ,0,0,7.,4.8,0.,4.8,0.,4.8,0.,4.8
1986-01-26 06:28:05.220 ,0,0,3.,4.8,0.,4.8,0.,4.8,0.,4.8
1986-01-26 06:28:10.020 ,0,0,8.,4.8,0.,4.8,0.,4.8,0.,4.8
1986-01-26 06:28:14.820 ,0,0,6.,4.8,0.,4.8,0.,4.8,0.,4.8
1986-01-26 06:28:19.620 ,0,0,12.,4.8,0.,4.8,0.,4.8,0.,4.8
1986-01-26 06:28:24.420 ,0,0,9.,4.8,0.,4.8,0.,4.8,0.,4.8
1986-01-26 06:28:29.220 ,0,0,10.,4.8,0.,4.8,0.,4.8,0.,4.8
1986-01-26 06:28:34.020 ,0,0,5.,4.8,0.,4.8,0.,4.8,0.,4.8
1986-01-26 06:28:38.820 ,0,0,7.,4.8,0.,4.8,0.,4.8,0.,4.8
1986-01-26 06:28:43.620 ,0,0,5.,4.8,0.,4.8,0.,4.8,0.,4.8
1986-01-26 06:28:48.420 ,1,0,5.,4.8,0.,4.8,0.,4.8,0.,4.8
1986-01-26 06:28:53.220 ,1,0,9.,4.8,0.,4.8,0.,4.8,0.,4.8
1986-01-26 06:28:58.020 ,1,0,5.,4.8,0.,4.8,0.,4.8,0.,4.8
1986-01-26 06:29:02.820 ,1,0,10.,4.8,0.,4.8,0.,4.8,0.,4.8
1986-01-26 06:29:07.620 ,1,0,7.,4.8,0.,4.8,0.,4.8,0.,4.8
1986-01-26 06:29:12.420 ,1,0,6.,4.8,0.,4.8,0.,4.8,0.,4.8
1986-01-26 06:29:17.220 ,1,0,7.,4.8,0.,4.8,0.,4.8,0.,4.8
1986-01-26 06:29:22.020 ,1,0,5.,4.8,0.,4.8,0.,4.8,0.,4.8
1986-01-26 06:29:26.820 ,1,0,7.,4.8,0.,4.8,0.,4.8,0.,4.8
1986-01-26 06:29:31.620 ,1,0,6.,4.8,0.,4.8,0.,4.8,0.,4.8
1986-01-26 06:29:36.420 ,2,0,7.,4.8,0.,4.8,0.,4.8,0.,4.8
1986-01-26 06:29:41.220 ,2,0,6.,4.8,0.,4.8,0.,4.8,0.,4.8
1986-01-26 06:29:46.020 ,2,0,8.,4.8,0.,4.8,0.,4.8,0.,4.8
1986-01-26 06:29:50.820 ,2,0,8.,4.8,0.,4.8,0.,4.8,0.,4.8
1986-01-26 06:29:55.620 ,2,0,6.,4.8,0.,4.8,0.,4.8,0.,4.8
1986-01-26 06:30:00.420 ,2,0,4.,4.8,0.,4.8,0.,4.8,0.,4.8
1986-01-26 06:30:05.220 ,2,0,8.,4.8,0.,4.8,0.,4.8,0.,4.8
1986-01-26 06:30:10.020 ,2,0,3.,4.8,0.,4.8,0.,4.8,0.,4.8
1986-01-26 06:30:14.820 ,2,0,8.,4.8,0.,4.8,0.,4.8,0.,4.8
1986-01-26 06:30:19.620 ,2,0,9.,4.8,0.,4.8,0.,4.8,0.,4.8
1986-01-26 06:30:24.420 ,3,0,8.,4.8,0.,4.8,0.,4.8,0.,4.8
1986-01-26 06:30:29.220 ,3,0,8.,4.8,0.,4.8,0.,4.8,0.,4.8
1986-01-26 06:30:34.020 ,3,0,5.,4.8,0.,4.8,0.,4.8,0.,4.8
1986-01-26 06:30:38.820 ,3,0,6.,4.8,0.,4.8,0.,4.8,0.,4.8
1986-01-26 06:30:43.620 ,3,0,4.,4.8,0.,4.8,0.,4.8,0.,4.8
1986-01-26 06:30:48.420 ,3,0,9.,4.8,0.,4.8,0.,4.8,0.,4.8
1986-01-26 06:30:53.220 ,3,0,7.,4.8,0.,4.8,0.,4.8,0.,4.8
1986-01-26 06:30:58.020 ,3,0,8.,4.8,0.,4.8,0.,4.8,0.,4.8
1986-01-26 06:31:02.820 ,3,0,9.,4.8,0.,4.8,0.,4.8,0.,4.8
1986-01-26 06:31:07.620 ,3,0,8.,4.8,0.,4.8,0.,4.8,0.,4.8
1986-01-26 06:31:12.420 ,4,0,8.,4.8,0.,4.8,0.,4.8,0.,4.8
1986-01-26 06:31:17.220 ,4,0,9.,4.8,0.,4.8,0.,4.8,0.,4.8
1986-01-26 06:31:22.020 ,4,0,6.,4.8,0.,4.8,0.,4.8,0.,4.8
1986-01-26 06:31:26.820 ,4,0,12.,4.8,0.,4.8,0.,4.8,0.,4.8
1986-01-26 06:31:31.620 ,4,0,11.,4.8,0.,4.8,0.,4.8,0.,4.8
1986-01-26 06:31:36.420 ,4,0,7.,4.8,0.,4.8,0.,4.8,0.,4.8
1986-01-26 06:31:41.220 ,4,0,5.,4.8,0.,4.8,0.,4.8,0.,4.8
1986-01-26 06:31:46.020 ,4,0,7.,4.8,0.,4.8,0.,4.8,0.,4.8
1986-01-26 06:31:50.820 ,4,0,8.,4.8,0.,4.8,0.,4.8,0.,4.8
1986-01-26 06:31:55.620 ,4,0,7.,4.8,0.,4.8,0.,4.8,0.,4.8
1986-01-26 06:32:00.420 ,5,0,6.,4.8,0.,4.8,0.,4.8,0.,4.8
1986-01-26 06:32:05.220 ,5,0,6.,4.8,0.,4.8,0.,4.8,0.,4.8
1986-01-26 06:32:10.020 ,5,0,8.,4.8,0.,4.8,0.,4.8,0.,4.8
1986-01-26 06:32:14.820 ,5,0,2.,4.8,0.,4.8,0.,4.8,1.,4.8
1986-01-26 06:32:19.620 ,5,0,8.,4.8,0.,4.8,0.,4.8,0.,4.8
1986-01-26 06:32:24.420 ,5,0,14.,4.8,0.,4.8,0.,4.8,0.,4.8
1986-01-26 06:32:29.220 ,5,0,16.,4.8,0.,4.8,0.,4.8,0.,4.8
1986-01-26 06:32:34.020 ,5,0,7.,4.8,0.,4.8,0.,4.8,0.,4.8
1986-01-26 06:32:38.820 ,5,0,9.,4.8,0.,4.8,0.,4.8,0.,4.8
1986-01-26 06:32:43.620 ,5,0,7.,4.8,0.,4.8,0.,4.8,0.,4.8
1986-01-26 06:32:48.420 ,6,0,13.,4.8,0.,4.8,0.,4.8,0.,4.8
1986-01-26 06:32:53.220 ,6,0,7.,4.8,0.,4.8,0.,4.8,0.,4.8
1986-01-26 06:32:58.020 ,6,0,6.,4.8,0.,4.8,0.,4.8,0.,4.8
1986-01-26 06:33:02.820 ,6,0,11.,4.8,0.,4.8,0.,4.8,0.,4.8
1986-01-26 06:33:07.620 ,6,0,5.,4.8,0.,4.8,0.,4.8,0.,4.8
1986-01-26 06:33:12.420 ,6,0,5.,4.8,0.,4.8,0.,4.8,0.,4.8